ASA232 PABR-PASC

Flight info

Callsign ASA232
Flight time 0h 34m
Altitude 23000
Route BRW Q48 SCC
Aircraft B38M/M-SDE1FGHILORVWXY/HB1

Departure

Time 2026-04-19 21:17
Airport Wiley Post Will Rogers Memorial Airport (PABR)

Arrival

Time 2026-04-19 21:51
Airport Deadhorse Airport (PASC)
Time Latitude Longitude Altitude Speed Heading
2026-04-19 21:02 71.28731 -156.76987 51 ft 0 kts 334°
2026-04-19 21:13 71.28727 -156.76980 50 ft 2 kts 338°
2026-04-19 21:13 71.28712 -156.76966 51 ft 1 kts 35°
2026-04-19 21:14 71.28711 -156.76951 51 ft 3 kts 78°
2026-04-19 21:14 71.28711 -156.76771 53 ft 14 kts 90°
2026-04-19 21:14 71.28711 -156.76357 53 ft 24 kts 90°
2026-04-19 21:14 71.28683 -156.75765 51 ft 29 kts 115°
2026-04-19 21:15 71.28555 -156.75484 50 ft 19 kts 111°
2026-04-19 21:15 71.28550 -156.75008 48 ft 26 kts 91°
2026-04-19 21:15 71.28551 -156.74476 45 ft 24 kts 89°
2026-04-19 21:15 71.28539 -156.73953 47 ft 21 kts 94°
2026-04-19 21:16 71.28559 -156.73724 47 ft 3 kts 338°
2026-04-19 21:16 71.28559 -156.73756 47 ft 4 kts 262°
2026-04-19 21:16 71.28549 -156.74140 47 ft 43 kts 270°
2026-04-19 21:16 71.28548 -156.76034 53 ft 126 kts 270°
2026-04-19 21:17 71.28546 -156.79398 84 ft 178 kts 270°
2026-04-19 21:17 71.28549 -156.83485 272 ft 199 kts 270°
2026-04-19 21:17 71.28580 -156.87773 951 ft 176 kts 272°
2026-04-19 21:17 71.28476 -156.91432 1567 ft 181 kts 244°
2026-04-19 21:18 71.27468 -156.93949 1498 ft 201 kts 195°
2026-04-19 21:18 71.25977 -156.93304 1459 ft 244 kts 150°
2026-04-19 21:18 71.24733 -156.89144 1490 ft 288 kts 115°
2026-04-19 21:18 71.24339 -156.82769 1560 ft 325 kts 89°
2026-04-19 21:19 71.24606 -156.75491 1950 ft 347 kts 82°
2026-04-19 21:19 71.24899 -156.67943 2746 ft 356 kts 85°
2026-04-19 21:19 71.24992 -156.60187 3627 ft 361 kts 91°
2026-04-19 21:19 71.24900 -156.54991 4226 ft 364 kts 95°
2026-04-19 21:20 71.24155 -156.44730 5390 ft 370 kts 109°
2026-04-19 21:20 71.23239 -156.37213 6250 ft 374 kts 111°
2026-04-19 21:20 71.22588 -156.32094 6811 ft 377 kts 111°
2026-04-19 21:20 71.21748 -156.24456 7623 ft 381 kts 107°
2026-04-19 21:21 71.20999 -156.16490 8432 ft 385 kts 106°
2026-04-19 21:21 71.20209 -156.08505 9210 ft 389 kts 108°
2026-04-19 21:21 71.19342 -156.00488 9986 ft 393 kts 109°
2026-04-19 21:21 71.18476 -155.92485 10726 ft 397 kts 108°
2026-04-19 21:22 71.17615 -155.84238 11453 ft 401 kts 108°
2026-04-19 21:22 71.16753 -155.75974 12150 ft 405 kts 108°
2026-04-19 21:22 71.15871 -155.67728 12830 ft 409 kts 108°
2026-04-19 21:22 71.14962 -155.59316 13503 ft 413 kts 108°
2026-04-19 21:23 71.14048 -155.50841 14081 ft 416 kts 108°
2026-04-19 21:23 71.13129 -155.42317 14292 ft 418 kts 108°
2026-04-19 21:23 71.12204 -155.33802 14295 ft 416 kts 109°
2026-04-19 21:23 71.11282 -155.25396 14290 ft 417 kts 109°
2026-04-19 21:24 71.10349 -155.16920 14292 ft 417 kts 109°
2026-04-19 21:24 71.09413 -155.08443 14292 ft 416 kts 109°
2026-04-19 21:24 71.08485 -155.00084 14294 ft 416 kts 109°
2026-04-19 21:24 71.07540 -154.91620 14293 ft 417 kts 109°
2026-04-19 21:25 71.06592 -154.83172 14292 ft 416 kts 109°
2026-04-19 21:25 71.05641 -154.74736 14293 ft 416 kts 109°
2026-04-19 21:25 71.04687 -154.66312 14292 ft 417 kts 109°
2026-04-19 21:25 71.03727 -154.57888 14292 ft 417 kts 109°
2026-04-19 21:26 71.02778 -154.49590 14293 ft 416 kts 109°
2026-04-19 21:26 71.01813 -154.41202 14292 ft 417 kts 109°
2026-04-19 21:26 71.00845 -154.32820 14292 ft 417 kts 109°
2026-04-19 21:26 70.99869 -154.24420 14293 ft 416 kts 110°
2026-04-19 21:27 70.98891 -154.16039 14294 ft 417 kts 110°
2026-04-19 21:27 70.97906 -154.07637 14294 ft 417 kts 110°
2026-04-19 21:27 70.96936 -153.99401 14292 ft 416 kts 110°
2026-04-19 21:27 70.95946 -153.91039 14295 ft 417 kts 110°
2026-04-19 21:28 70.94953 -153.82697 14292 ft 417 kts 110°
2026-04-19 21:28 70.93958 -153.74365 14292 ft 416 kts 110°
2026-04-19 21:28 70.92957 -153.66032 14292 ft 417 kts 110°
2026-04-19 21:28 70.91964 -153.57799 14292 ft 417 kts 110°
2026-04-19 21:29 70.90957 -153.49495 14292 ft 416 kts 110°
2026-04-19 21:29 70.89947 -153.41200 14293 ft 416 kts 110°
2026-04-19 21:29 70.88932 -153.32906 14293 ft 417 kts 110°
2026-04-19 21:29 70.87911 -153.24602 14293 ft 416 kts 110°
2026-04-19 21:30 70.86902 -153.16432 14295 ft 416 kts 111°
2026-04-19 21:30 70.85875 -153.08157 14293 ft 417 kts 111°
2026-04-19 21:30 70.84845 -152.99894 14293 ft 416 kts 111°
2026-04-19 21:30 70.83813 -152.91649 14292 ft 416 kts 111°
2026-04-19 21:31 70.82775 -152.83404 14289 ft 417 kts 111°
2026-04-19 21:31 70.81736 -152.75182 13925 ft 415 kts 111°
2026-04-19 21:31 70.80710 -152.67102 13494 ft 413 kts 111°
2026-04-19 21:31 70.79673 -152.58967 13065 ft 411 kts 111°
2026-04-19 21:32 70.78639 -152.50898 12649 ft 408 kts 111°
2026-04-19 21:32 70.77606 -152.42871 12229 ft 406 kts 111°
2026-04-19 21:32 70.76578 -152.34914 11817 ft 404 kts 111°
2026-04-19 21:32 70.75549 -152.26986 11402 ft 402 kts 111°
2026-04-19 21:33 70.74523 -152.19121 11053 ft 398 kts 111°
2026-04-19 21:33 70.73518 -152.11441 11009 ft 398 kts 111°
2026-04-19 21:33 70.72441 -152.03724 10991 ft 397 kts 116°
2026-04-19 21:33 70.71060 -151.96517 10624 ft 391 kts 123°
2026-04-19 21:34 70.69558 -151.89818 10236 ft 378 kts 124°
2026-04-19 21:34 70.68141 -151.83290 9920 ft 362 kts 121°
2026-04-19 21:34 70.66912 -151.76784 9484 ft 352 kts 119°
2026-04-19 21:34 70.65730 -151.70388 8956 ft 346 kts 120°
2026-04-19 21:35 70.64508 -151.64191 8542 ft 340 kts 121°
2026-04-19 21:35 70.63299 -151.58210 8506 ft 339 kts 121°
2026-04-19 21:35 70.62083 -151.52075 8507 ft 339 kts 121°
2026-04-19 21:35 70.60884 -151.45965 8505 ft 339 kts 121°
2026-04-19 21:36 70.59674 -151.39859 8505 ft 339 kts 121°
2026-04-19 21:36 70.58486 -151.33923 8496 ft 327 kts 121°
2026-04-19 21:36 70.57349 -151.28244 8492 ft 308 kts 121°
2026-04-19 21:36 70.56277 -151.22889 8488 ft 291 kts 121°
2026-04-19 21:37 70.55241 -151.17732 8490 ft 287 kts 121°
2026-04-19 21:37 70.54209 -151.12608 8495 ft 286 kts 121°
2026-04-19 21:37 70.53179 -151.07506 8490 ft 285 kts 121°
2026-04-19 21:37 70.52151 -151.02426 8496 ft 284 kts 121°
2026-04-19 21:38 70.51125 -150.97366 8493 ft 284 kts 121°
2026-04-19 21:38 70.50096 -150.92307 8493 ft 284 kts 121°
2026-04-19 21:38 70.49077 -150.87307 8407 ft 284 kts 121°
2026-04-19 21:38 70.48049 -150.82277 8396 ft 283 kts 121°
2026-04-19 21:39 70.47018 -150.77243 8397 ft 284 kts 122°
2026-04-19 21:39 70.45988 -150.72225 8396 ft 284 kts 122°
2026-04-19 21:39 70.44953 -150.67192 8396 ft 284 kts 122°
2026-04-19 21:39 70.43918 -150.62177 8396 ft 284 kts 122°
2026-04-19 21:40 70.41852 -150.52192 8396 ft 284 kts 122°
2026-04-19 21:40 70.40812 -150.47183 8397 ft 284 kts 122°
2026-04-19 21:40 70.39770 -150.42179 8397 ft 284 kts 122°
2026-04-19 21:41 70.38726 -150.37179 8397 ft 284 kts 122°
2026-04-19 21:41 70.37678 -150.32167 8397 ft 284 kts 122°
2026-04-19 21:41 70.36650 -150.27265 8397 ft 284 kts 122°
2026-04-19 21:41 70.35602 -150.22277 8397 ft 284 kts 122°
2026-04-19 21:42 70.34557 -150.17315 8397 ft 284 kts 122°
2026-04-19 21:42 70.33504 -150.12328 8397 ft 284 kts 122°
2026-04-19 21:42 70.32450 -150.07345 8397 ft 284 kts 122°
2026-04-19 21:42 70.31400 -150.02395 8397 ft 284 kts 122°
2026-04-19 21:43 70.30344 -149.97427 8397 ft 284 kts 122°
2026-04-19 21:43 70.29302 -149.92537 8397 ft 284 kts 122°
2026-04-19 21:43 70.28247 -149.87599 8397 ft 284 kts 122°
2026-04-19 21:43 70.27186 -149.82641 8397 ft 284 kts 122°
2026-04-19 21:44 70.26126 -149.77700 8398 ft 284 kts 122°
2026-04-19 21:44 70.25065 -149.72766 8398 ft 284 kts 122°
2026-04-19 21:44 70.24014 -149.67892 8398 ft 284 kts 123°
2026-04-19 21:44 70.22948 -149.62959 8397 ft 284 kts 123°
2026-04-19 21:45 70.21882 -149.58037 8398 ft 284 kts 123°
2026-04-19 21:45 70.20816 -149.53124 8398 ft 284 kts 123°
2026-04-19 21:45 70.19744 -149.48197 8398 ft 284 kts 123°
2026-04-19 21:45 70.18688 -149.43351 8398 ft 284 kts 123°
2026-04-19 21:46 70.17620 -149.38467 8398 ft 284 kts 123°
2026-04-19 21:46 70.16546 -149.33564 8398 ft 284 kts 123°
2026-04-19 21:46 70.15470 -149.28662 8398 ft 284 kts 123°
2026-04-19 21:46 70.14410 -149.23842 8398 ft 284 kts 123°
2026-04-19 21:47 70.13384 -149.18887 8397 ft 284 kts 112°
2026-04-19 21:47 70.13133 -149.13234 8413 ft 278 kts 82°
2026-04-19 21:47 70.13591 -149.07880 8402 ft 265 kts 71°
2026-04-19 21:47 70.14190 -149.02877 8391 ft 253 kts 70°
2026-04-19 21:48 70.14737 -148.98082 8389 ft 241 kts 73°
2026-04-19 21:48 70.15164 -148.93478 8387 ft 231 kts 75°
2026-04-19 21:48 70.15565 -148.88969 8382 ft 224 kts 75°
2026-04-19 21:48 70.15966 -148.84627 7660 ft 226 kts 74°
2026-04-19 21:49 70.16394 -148.80004 6692 ft 229 kts 75°
2026-04-19 21:49 70.16791 -148.75582 5663 ft 221 kts 75°
2026-04-19 21:49 70.17201 -148.71149 4534 ft 217 kts 75°
2026-04-19 21:49 70.17557 -148.67174 3693 ft 185 kts 75°
2026-04-19 21:50 70.17865 -148.63823 2953 ft 159 kts 75°
2026-04-19 21:50 70.18144 -148.60805 2374 ft 151 kts 74°
2026-04-19 21:50 70.18432 -148.57750 1895 ft 154 kts 75°
2026-04-19 21:50 70.18736 -148.54734 1376 ft 154 kts 73°
2026-04-19 21:51 70.19016 -148.51842 681 ft 138 kts 71°
2026-04-19 21:51 70.19325 -148.49316 94 ft 119 kts 68°
2026-04-19 21:51 70.19561 -148.47417 61 ft 71 kts 73°
2026-04-19 21:51 70.19649 -148.46581 63 ft 29 kts 49°
2026-04-19 21:52 70.19724 -148.46472 65 ft 19 kts